Time,TemperatureF,DewpointF,PressureIn,WindDirection,WindDirectionDegrees,WindSpeedMPH,WindSpeedGustMPH,Humidity,HourlyPrecipIn,Conditions,Clouds,dailyrainin,SoftwareType,DateUTC
2013-06-28 00:01:00,70.4,66.7,29.62,WSW,244,0.0,0.0,88,0.00,,---,0.00,VWS V14.00,2013-06-28 04:01:00,
2013-06-28 00:02:00,70.4,66.7,29.62,WSW,245,0.0,0.0,88,0.00,,---,0.00,VWS V14.00,2013-06-28 04:02:00,
2013-06-28 00:04:00,70.4,66.7,29.63,WSW,245,0.0,0.0,88,0.00,,---,0.00,VWS V14.00,2013-06-28 04:04:00,
2013-06-28 00:09:00,70.3,66.6,29.63,WSW,244,0.0,0.0,88,0.00,,---,0.00,VWS V14.00,2013-06-28 04:09:00,
2013-06-28 00:14:00,70.2,66.5,29.64,WSW,245,0.0,0.0,88,0.00,,---,0.00,VWS V14.00,2013-06-28 04:14:00,
2013-06-28 00:19:00,70.2,66.5,29.63,WSW,245,0.0,1.0,88,0.00,,---,0.00,VWS V14.00,2013-06-28 04:19:00,
2013-06-28 00:24:00,70.2,66.5,29.63,WSW,244,0.0,1.0,88,0.00,,---,0.00,VWS V14.00,2013-06-28 04:24:00,
2013-06-28 00:29:00,70.2,66.5,29.63,WSW,245,0.0,1.0,88,0.00,,---,0.00,VWS V14.00,2013-06-28 04:29:00,
2013-06-28 00:34:00,70.1,66.4,29.63,WSW,245,0.0,1.0,88,0.00,,---,0.00,VWS V14.00,2013-06-28 04:34:00,
2013-06-28 00:40:00,70.0,66.3,29.62,WSW,245,0.0,1.0,88,0.00,,---,0.00,VWS V14.00,2013-06-28 04:40:00,
2013-06-28 00:45:00,69.9,66.5,29.62,WSW,245,0.0,1.0,89,0.00,,---,0.00,VWS V14.00,2013-06-28 04:45:00,
2013-06-28 00:50:00,69.7,66.3,29.62,WSW,244,0.0,1.0,89,0.00,,---,0.00,VWS V14.00,2013-06-28 04:50:00,
2013-06-28 00:55:00,69.6,66.2,29.61,WSW,244,0.0,1.0,89,0.00,,---,0.00,VWS V14.00,2013-06-28 04:55:00,
2013-06-28 01:00:00,69.5,66.1,29.61,WSW,245,0.0,0.0,89,0.00,,---,0.00,VWS V14.00,2013-06-28 05:00:00,
2013-06-28 01:05:00,69.4,66.0,29.61,WSW,245,0.0,1.0,89,0.00,,---,0.00,VWS V14.00,2013-06-28 05:05:00,
2013-06-28 01:10:00,69.3,65.9,29.61,WSW,245,0.0,1.0,89,0.00,,---,0.00,VWS V14.00,2013-06-28 05:10:00,
2013-06-28 01:15:00,69.2,65.8,29.61,WSW,244,0.0,1.0,89,0.00,,---,0.00,VWS V14.00,2013-06-28 05:15:00,
2013-06-28 01:20:00,69.1,65.7,29.61,WSW,245,0.0,1.0,89,0.00,,---,0.00,VWS V14.00,2013-06-28 05:20:00,
2013-06-28 01:25:00,68.9,65.5,29.61,WSW,244,1.0,1.0,89,0.00,,---,0.00,VWS V14.00,2013-06-28 05:25:00,
2013-06-28 01:30:00,68.9,65.2,29.61,WSW,245,0.0,0.0,88,0.00,,---,0.00,VWS V14.00,2013-06-28 05:30:00,
2013-06-28 01:35:00,68.8,65.1,29.62,WSW,245,0.0,0.0,88,0.00,,---,0.00,VWS V14.00,2013-06-28 05:35:00,
2013-06-28 01:40:00,68.7,65.0,29.61,WSW,244,0.0,0.0,88,0.00,,---,0.00,VWS V14.00,2013-06-28 05:40:00,
2013-06-28 01:45:00,68.6,64.9,29.61,WSW,244,0.0,0.0,88,0.00,,---,0.00,VWS V14.00,2013-06-28 05:45:00,
2013-06-28 01:50:00,68.6,64.9,29.62,WSW,244,0.0,1.0,88,0.00,,---,0.00,VWS V14.00,2013-06-28 05:50:00,
2013-06-28 01:55:00,68.6,64.9,29.61,WSW,245,0.0,1.0,88,0.00,,---,0.00,VWS V14.00,2013-06-28 05:55:00,
2013-06-28 02:00:00,68.6,64.9,29.62,WSW,244,0.0,1.0,88,0.00,,---,0.00,VWS V14.00,2013-06-28 06:00:00,
2013-06-28 02:05:00,68.6,64.9,29.62,WSW,244,0.0,1.0,88,0.00,,---,0.00,VWS V14.00,2013-06-28 06:05:00,
2013-06-28 02:10:00,68.6,64.9,29.62,WSW,248,0.0,4.0,88,0.00,,---,0.00,VWS V14.00,2013-06-28 06:10:00,
2013-06-28 02:15:00,68.6,64.9,29.62,WSW,254,0.0,4.0,88,0.00,,---,0.00,VWS V14.00,2013-06-28 06:15:00,
2013-06-28 02:20:00,68.6,64.9,29.62,WSW,252,0.0,4.0,88,0.00,,---,0.00,VWS V14.00,2013-06-28 06:20:00,
2013-06-28 02:26:00,68.5,65.1,29.61,WSW,252,0.0,4.0,89,0.00,,---,0.00,VWS V14.00,2013-06-28 06:26:00,
2013-06-28 02:31:00,68.5,65.1,29.61,WSW,253,0.0,0.0,89,0.00,,---,0.00,VWS V14.00,2013-06-28 06:31:00,
2013-06-28 02:36:00,68.5,65.1,29.61,WSW,253,0.0,0.0,89,0.00,,---,0.00,VWS V14.00,2013-06-28 06:36:00,
2013-06-28 02:41:00,68.5,65.1,29.61,WSW,253,0.0,2.0,89,0.00,,---,0.00,VWS V14.00,2013-06-28 06:41:00,
2013-06-28 02:46:00,68.5,65.1,29.60,WSW,253,0.0,2.0,89,0.00,,---,0.00,VWS V14.00,2013-06-28 06:46:00,
2013-06-28 02:51:00,68.5,65.1,29.61,SW,232,0.0,3.0,89,0.00,,---,0.00,VWS V14.00,2013-06-28 06:51:00,
2013-06-28 02:56:00,68.6,65.2,29.61,WSW,244,1.0,3.0,89,0.00,,---,0.00,VWS V14.00,2013-06-28 06:56:00,
2013-06-28 03:01:00,68.6,65.2,29.60,West,265,0.0,4.0,89,0.00,,---,0.00,VWS V14.00,2013-06-28 07:01:00,
2013-06-28 03:06:00,68.7,65.3,29.60,West,262,0.0,4.0,89,0.00,,---,0.00,VWS V14.00,2013-06-28 07:06:00,
2013-06-28 03:11:00,68.8,65.1,29.60,West,259,0.0,6.0,88,0.00,,---,0.00,VWS V14.00,2013-06-28 07:11:00,
2013-06-28 03:16:00,68.9,65.2,29.60,West,259,0.0,6.0,88,0.00,,---,0.00,VWS V14.00,2013-06-28 07:16:00,
2013-06-28 03:21:00,68.8,65.1,29.60,West,259,0.0,6.0,88,0.00,,---,0.00,VWS V14.00,2013-06-28 07:21:00,
2013-06-28 03:26:00,68.8,65.1,29.60,West,259,0.0,6.0,88,0.00,,---,0.00,VWS V14.00,2013-06-28 07:26:00,
2013-06-28 03:31:00,68.8,65.1,29.60,West,259,0.0,0.0,88,0.00,,---,0.00,VWS V14.00,2013-06-28 07:31:00,
2013-06-28 03:36:00,68.7,65.0,29.60,West,259,0.0,1.0,88,0.00,,---,0.00,VWS V14.00,2013-06-28 07:36:00,
2013-06-28 03:41:00,68.6,64.9,29.60,West,259,0.0,1.0,88,0.00,,---,0.00,VWS V14.00,2013-06-28 07:41:00,
2013-06-28 03:46:00,68.6,64.9,29.60,West,259,0.0,1.0,88,0.00,,---,0.00,VWS V14.00,2013-06-28 07:46:00,
2013-06-28 03:51:00,68.6,65.2,29.59,West,259,0.0,1.0,89,0.00,,---,0.00,VWS V14.00,2013-06-28 07:51:00,
2013-06-28 03:56:00,68.5,65.1,29.59,West,259,0.0,1.0,89,0.00,,---,0.00,VWS V14.00,2013-06-28 07:56:00,
2013-06-28 04:01:00,68.5,65.1,29.59,West,259,0.0,0.0,89,0.00,,---,0.00,VWS V14.00,2013-06-28 08:01:00,
2013-06-28 04:06:00,68.4,65.0,29.59,West,259,0.0,0.0,89,0.00,,---,0.00,VWS V14.00,2013-06-28 08:06:00,
2013-06-28 04:12:00,68.3,64.9,29.59,West,259,0.0,0.0,89,0.00,,---,0.00,VWS V14.00,2013-06-28 08:12:00,
2013-06-28 04:17:00,68.3,64.9,29.59,West,259,0.0,0.0,89,0.00,,---,0.00,VWS V14.00,2013-06-28 08:17:00,
2013-06-28 04:22:00,68.2,64.8,29.58,West,259,0.0,0.0,89,0.00,,---,0.00,VWS V14.00,2013-06-28 08:22:00,
2013-06-28 04:27:00,68.1,64.7,29.59,West,259,0.0,0.0,89,0.00,,---,0.00,VWS V14.00,2013-06-28 08:27:00,
2013-06-28 04:32:00,68.0,64.6,29.59,West,259,0.0,0.0,89,0.00,,---,0.00,VWS V14.00,2013-06-28 08:32:00,
2013-06-28 04:37:00,68.0,64.6,29.59,West,259,0.0,0.0,89,0.00,,---,0.00,VWS V14.00,2013-06-28 08:37:00,
2013-06-28 04:42:00,67.9,64.5,29.59,West,259,0.0,0.0,89,0.00,,---,0.00,VWS V14.00,2013-06-28 08:42:00,
2013-06-28 04:47:00,67.8,64.4,29.59,West,259,0.0,0.0,89,0.00,,---,0.00,VWS V14.00,2013-06-28 08:47:00,
2013-06-28 04:52:00,67.7,64.7,29.59,West,259,0.0,0.0,90,0.00,,---,0.00,VWS V14.00,2013-06-28 08:52:00,
2013-06-28 04:57:00,67.6,64.6,29.59,West,259,0.0,1.0,90,0.00,,---,0.00,VWS V14.00,2013-06-28 08:57:00,
2013-06-28 05:02:00,67.5,64.5,29.60,West,259,0.0,2.0,90,0.00,,---,0.00,VWS V14.00,2013-06-28 09:02:00,
2013-06-28 05:07:00,67.5,64.5,29.60,West,259,0.0,2.0,90,0.00,,---,0.00,VWS V14.00,2013-06-28 09:07:00,
2013-06-28 05:12:00,67.5,64.5,29.60,West,264,0.0,4.0,90,0.00,,---,0.00,VWS V14.00,2013-06-28 09:12:00,
2013-06-28 05:17:00,67.5,64.5,29.59,West,263,0.0,4.0,90,0.00,,---,0.00,VWS V14.00,2013-06-28 09:17:00,
2013-06-28 05:22:00,67.4,64.1,29.59,West,259,0.0,4.0,89,0.00,,---,0.00,VWS V14.00,2013-06-28 09:22:00,
2013-06-28 05:27:00,67.3,64.0,29.60,West,259,0.0,4.0,89,0.00,,---,0.00,VWS V14.00,2013-06-28 09:27:00,
2013-06-28 05:32:00,67.3,64.0,29.60,West,259,0.0,1.0,89,0.00,,---,0.00,VWS V14.00,2013-06-28 09:32:00,
2013-06-28 05:37:00,67.2,63.8,29.59,West,259,0.0,1.0,89,0.00,,---,0.00,VWS V14.00,2013-06-28 09:37:00,
2013-06-28 05:42:00,67.2,63.8,29.59,West,259,0.0,1.0,89,0.00,,---,0.00,VWS V14.00,2013-06-28 09:42:00,
2013-06-28 05:47:00,67.1,63.8,29.59,West,259,0.0,1.0,89,0.00,,---,0.00,VWS V14.00,2013-06-28 09:47:00,
2013-06-28 05:52:00,67.0,64.0,29.59,West,259,0.0,1.0,90,0.00,,---,0.00,VWS V14.00,2013-06-28 09:52:00,
2013-06-28 05:57:00,66.9,63.9,29.58,West,259,0.0,1.0,90,0.00,,---,0.00,VWS V14.00,2013-06-28 09:57:00,
2013-06-28 06:03:00,66.9,63.9,29.59,West,259,0.0,1.0,90,0.00,,---,0.00,VWS V14.00,2013-06-28 10:03:00,
2013-06-28 06:08:00,66.9,63.9,29.59,WSW,256,2.0,4.0,90,0.00,,---,0.00,VWS V14.00,2013-06-28 10:08:00,
2013-06-28 06:13:00,66.8,63.8,29.59,WSW,250,0.0,5.0,90,0.00,,---,0.00,VWS V14.00,2013-06-28 10:13:00,
2013-06-28 06:18:00,66.7,63.7,29.59,WSW,250,0.0,5.0,90,0.00,,---,0.00,VWS V14.00,2013-06-28 10:18:00,
2013-06-28 06:23:00,66.7,63.7,29.58,WSW,239,0.0,5.0,90,0.00,,---,0.00,VWS V14.00,2013-06-28 10:23:00,
2013-06-28 06:28:00,66.7,63.7,29.59,WSW,238,1.0,5.0,90,0.00,,---,0.00,VWS V14.00,2013-06-28 10:28:00,
2013-06-28 06:33:00,66.7,63.7,29.59,WSW,242,2.0,4.0,90,0.00,,---,0.00,VWS V14.00,2013-06-28 10:33:00,
2013-06-28 06:38:00,66.6,63.9,29.59,WSW,243,1.0,4.0,91,0.00,,---,0.00,VWS V14.00,2013-06-28 10:38:00,
2013-06-28 06:43:00,66.7,64.0,29.59,WSW,254,1.0,6.0,91,0.00,,---,0.00,VWS V14.00,2013-06-28 10:43:00,
2013-06-28 06:48:00,66.7,64.0,29.59,WSW,253,0.0,6.0,91,0.00,,---,0.00,VWS V14.00,2013-06-28 10:48:00,
2013-06-28 06:53:00,66.8,64.1,29.59,West,261,0.0,6.0,91,0.00,,---,0.00,VWS V14.00,2013-06-28 10:53:00,
2013-06-28 06:58:00,66.9,64.2,29.59,West,261,0.0,6.0,91,0.00,,---,0.00,VWS V14.00,2013-06-28 10:58:00,
2013-06-28 07:03:00,67.0,64.3,29.59,West,267,0.0,3.0,91,0.00,,---,0.00,VWS V14.00,2013-06-28 11:03:00,
2013-06-28 07:08:00,67.1,64.1,29.59,West,267,0.0,3.0,90,0.00,,---,0.00,VWS V14.00,2013-06-28 11:08:00,
2013-06-28 07:13:00,67.2,64.2,29.59,SW,225,0.0,4.0,90,0.00,,---,0.00,VWS V14.00,2013-06-28 11:13:00,
2013-06-28 07:18:00,67.3,64.3,29.59,SW,225,0.0,4.0,90,0.00,,---,0.00,VWS V14.00,2013-06-28 11:18:00,
2013-06-28 07:23:00,67.5,64.5,29.59,SW,225,0.0,4.0,90,0.00,,---,0.00,VWS V14.00,2013-06-28 11:23:00,
2013-06-28 07:28:00,67.6,64.6,29.59,WSW,238,0.0,4.0,90,0.00,,---,0.00,VWS V14.00,2013-06-28 11:28:00,
2013-06-28 07:33:00,67.7,64.7,29.59,SW,236,0.0,1.0,90,0.00,,---,0.00,VWS V14.00,2013-06-28 11:33:00,
2013-06-28 07:38:00,67.9,64.9,29.59,SW,236,0.0,1.0,90,0.00,,---,0.00,VWS V14.00,2013-06-28 11:38:00,
2013-06-28 07:43:00,68.0,65.0,29.60,WSW,237,0.0,1.0,90,0.00,,---,0.00,VWS V14.00,2013-06-28 11:43:00,
2013-06-28 07:49:00,68.1,64.7,29.59,SW,236,0.0,1.0,89,0.00,,---,0.00,VWS V14.00,2013-06-28 11:49:00,
2013-06-28 07:54:00,68.3,64.9,29.59,West,261,1.0,3.0,89,0.00,,---,0.00,VWS V14.00,2013-06-28 11:54:00,
2013-06-28 07:59:00,68.5,65.1,29.59,West,261,0.0,3.0,89,0.00,,---,0.00,VWS V14.00,2013-06-28 11:59:00,
2013-06-28 08:04:00,68.6,65.2,29.59,SW,223,0.0,1.0,89,0.00,,---,0.00,VWS V14.00,2013-06-28 12:04:00,
2013-06-28 08:09:00,68.7,65.3,29.58,SW,223,0.0,1.0,89,0.00,,---,0.00,VWS V14.00,2013-06-28 12:09:00,
2013-06-28 08:14:00,68.8,65.4,29.59,SW,224,0.0,1.0,89,0.00,,---,0.00,VWS V14.00,2013-06-28 12:14:00,
2013-06-28 08:19:00,69.0,65.6,29.59,WSW,239,0.0,5.0,89,0.00,,---,0.00,VWS V14.00,2013-06-28 12:19:00,
2013-06-28 08:24:00,69.1,65.7,29.59,WSW,244,0.0,5.0,89,0.00,,---,0.00,VWS V14.00,2013-06-28 12:24:00,
2013-06-28 08:29:00,69.1,65.7,29.59,WSW,246,0.0,5.0,89,0.00,,---,0.00,VWS V14.00,2013-06-28 12:29:00,
2013-06-28 08:34:00,69.3,65.9,29.59,WSW,244,0.0,1.0,89,0.00,,---,0.00,VWS V14.00,2013-06-28 12:34:00,
2013-06-28 08:39:00,69.4,66.0,29.59,WSW,244,0.0,1.0,89,0.00,,---,0.00,VWS V14.00,2013-06-28 12:39:00,
2013-06-28 08:44:00,69.6,65.9,29.59,WSW,244,0.0,1.0,88,0.00,,---,0.00,VWS V14.00,2013-06-28 12:44:00,
2013-06-28 08:49:00,69.8,66.1,29.59,SW,236,0.0,3.0,88,0.00,,---,0.00,VWS V14.00,2013-06-28 12:49:00,
2013-06-28 08:54:00,69.9,66.2,29.59,SW,236,0.0,3.0,88,0.00,,---,0.00,VWS V14.00,2013-06-28 12:54:00,
2013-06-28 08:59:00,70.1,66.4,29.59,WSW,247,3.0,3.0,88,0.00,,---,0.00,VWS V14.00,2013-06-28 12:59:00,
2013-06-28 09:04:00,70.2,66.2,29.59,WSW,246,0.0,1.0,87,0.00,,---,0.00,VWS V14.00,2013-06-28 13:04:00,
2013-06-28 09:09:00,70.3,66.2,29.59,WSW,248,0.0,2.0,87,0.00,,---,0.00,VWS V14.00,2013-06-28 13:09:00,
2013-06-28 09:14:00,70.3,66.2,29.59,WSW,250,0.0,3.0,87,0.00,,---,0.00,VWS V14.00,2013-06-28 13:14:00,
2013-06-28 09:19:00,70.4,66.3,29.59,WSW,240,0.0,3.0,87,0.00,,---,0.00,VWS V14.00,2013-06-28 13:19:00,
2013-06-28 09:25:00,70.4,66.3,29.59,WSW,240,0.0,3.0,87,0.00,,---,0.00,VWS V14.00,2013-06-28 13:25:00,
2013-06-28 09:30:00,70.6,66.2,29.59,SSW,197,0.0,3.0,86,0.00,,---,0.00,VWS V14.00,2013-06-28 13:30:00,
2013-06-28 09:35:00,70.8,66.4,29.59,SSW,210,0.0,3.0,86,0.00,,---,0.00,VWS V14.00,2013-06-28 13:35:00,
2013-06-28 09:40:00,70.9,66.5,29.59,SSW,208,0.0,3.0,86,0.00,,---,0.00,VWS V14.00,2013-06-28 13:40:00,
2013-06-28 09:45:00,71.1,66.7,29.59,SSW,198,0.0,3.0,86,0.00,,---,0.00,VWS V14.00,2013-06-28 13:45:00,
2013-06-28 09:50:00,71.2,66.5,29.59,SSW,204,0.0,4.0,85,0.00,,---,0.00,VWS V14.00,2013-06-28 13:50:00,
2013-06-28 09:55:00,71.3,66.6,29.58,SSW,205,0.0,4.0,85,0.00,,---,0.00,VWS V14.00,2013-06-28 13:55:00,
2013-06-28 10:00:00,71.3,66.6,29.59,SSW,205,0.0,0.0,85,0.00,,---,0.00,VWS V14.00,2013-06-28 14:00:00,
2013-06-28 10:05:00,71.4,66.7,29.59,SSW,211,0.0,2.0,85,0.00,,---,0.00,VWS V14.00,2013-06-28 14:05:00,
2013-06-28 10:10:00,71.8,67.1,29.59,SSW,195,0.0,2.0,85,0.00,,---,0.00,VWS V14.00,2013-06-28 14:10:00,
2013-06-28 10:15:00,72.1,66.7,29.59,SSW,195,0.0,2.0,83,0.00,,---,0.00,VWS V14.00,2013-06-28 14:15:00,
2013-06-28 10:20:00,72.3,66.8,29.58,SSE,149,0.0,2.0,83,0.00,,---,0.00,VWS V14.00,2013-06-28 14:20:00,
2013-06-28 10:25:00,72.7,66.5,29.58,WSW,237,0.0,4.0,81,0.00,,---,0.00,VWS V14.00,2013-06-28 14:25:00,
2013-06-28 10:30:00,72.9,66.7,29.58,South,184,0.0,0.0,81,0.00,,---,0.00,VWS V14.00,2013-06-28 14:30:00,
2013-06-28 10:35:00,73.1,66.6,29.58,SSW,192,0.0,1.0,80,0.00,,---,0.00,VWS V14.00,2013-06-28 14:35:00,
2013-06-28 10:40:00,73.4,65.8,29.58,WSW,256,0.0,5.0,77,0.00,,---,0.00,VWS V14.00,2013-06-28 14:40:00,
2013-06-28 10:45:00,73.7,66.1,29.58,WSW,238,0.0,5.0,77,0.00,,---,0.00,VWS V14.00,2013-06-28 14:45:00,
2013-06-28 10:50:00,74.2,66.2,29.58,WSW,240,1.0,5.0,76,0.00,,---,0.00,VWS V14.00,2013-06-28 14:50:00,
2013-06-28 10:55:00,74.6,65.4,29.58,SW,223,1.0,5.0,73,0.00,,---,0.00,VWS V14.00,2013-06-28 14:55:00,
2013-06-28 11:01:00,74.5,65.3,29.58,WSW,240,1.0,1.0,73,0.00,,---,0.00,VWS V14.00,2013-06-28 15:01:00,
2013-06-28 11:06:00,74.6,65.0,29.58,WSW,254,0.0,2.0,72,0.00,,---,0.00,VWS V14.00,2013-06-28 15:06:00,
2013-06-28 11:11:00,75.0,66.6,29.58,ESE,123,0.0,2.0,75,0.00,,---,0.00,VWS V14.00,2013-06-28 15:11:00,
2013-06-28 11:16:00,75.5,65.4,29.58,SW,225,2.0,3.0,71,0.00,,---,0.00,VWS V14.00,2013-06-28 15:16:00,
2013-06-28 11:21:00,75.7,66.0,29.58,WSW,245,0.0,5.0,72,0.00,,---,0.00,VWS V14.00,2013-06-28 15:21:00,
2013-06-28 11:26:00,76.1,67.2,29.58,SW,223,2.0,5.0,74,0.00,,---,0.00,VWS V14.00,2013-06-28 15:26:00,
2013-06-28 11:31:00,76.4,67.1,29.58,SW,233,3.0,6.0,73,0.00,,---,0.00,VWS V14.00,2013-06-28 15:31:00,
2013-06-28 11:36:00,76.9,68.0,29.58,West,269,2.0,6.0,74,0.00,,---,0.00,VWS V14.00,2013-06-28 15:36:00,
2013-06-28 11:41:00,76.9,66.4,29.58,West,274,0.0,12.0,70,0.00,,---,0.00,VWS V14.00,2013-06-28 15:41:00,
2013-06-28 11:46:00,76.9,66.0,29.58,WSW,257,0.0,12.0,69,0.00,,---,0.00,VWS V14.00,2013-06-28 15:46:00,
2013-06-28 11:51:00,77.2,66.7,29.58,SW,220,0.0,12.0,70,0.00,,---,0.00,VWS V14.00,2013-06-28 15:51:00,
2013-06-28 11:56:00,77.5,66.5,29.58,SW,225,0.0,12.0,69,0.00,,---,0.00,VWS V14.00,2013-06-28 15:56:00,
2013-06-28 12:01:00,77.7,67.1,29.58,WSW,254,0.0,3.0,70,0.00,,---,0.00,VWS V14.00,2013-06-28 16:01:00,
2013-06-28 12:06:00,78.0,66.2,29.58,WSW,252,0.0,3.0,67,0.00,,---,0.00,VWS V14.00,2013-06-28 16:06:00,
2013-06-28 12:11:00,78.2,66.4,29.58,SW,224,2.0,5.0,67,0.00,,---,0.00,VWS V14.00,2013-06-28 16:11:00,
2013-06-28 12:16:00,78.2,65.0,29.58,WSW,237,0.0,8.0,64,0.00,,---,0.00,VWS V14.00,2013-06-28 16:16:00,
2013-06-28 12:21:00,78.1,66.3,29.58,WSW,246,3.0,8.0,67,0.00,,---,0.00,VWS V14.00,2013-06-28 16:21:00,
2013-06-28 12:27:00,78.4,66.6,29.58,WSW,258,3.0,8.0,67,0.00,,---,0.00,VWS V14.00,2013-06-28 16:27:00,
2013-06-28 12:32:00,78.5,65.8,29.58,WSW,250,0.0,5.0,65,0.00,,---,0.00,VWS V14.00,2013-06-28 16:32:00,
2013-06-28 12:37:00,78.7,66.0,29.58,WSW,252,0.0,7.0,65,0.00,,---,0.00,VWS V14.00,2013-06-28 16:37:00,
2013-06-28 12:42:00,78.7,66.0,29.58,WSW,251,3.0,7.0,65,0.00,,---,0.00,VWS V14.00,2013-06-28 16:42:00,
2013-06-28 12:47:00,78.8,65.6,29.57,WSW,255,0.0,12.0,64,0.00,,---,0.00,VWS V14.00,2013-06-28 16:47:00,
2013-06-28 12:52:00,78.5,65.8,29.57,SSE,168,0.0,12.0,65,0.00,,---,0.00,VWS V14.00,2013-06-28 16:52:00,
2013-06-28 12:57:00,78.5,66.6,29.57,WSW,254,0.0,12.0,67,0.00,,---,0.00,VWS V14.00,2013-06-28 16:57:00,
2013-06-28 13:02:00,78.9,67.0,29.57,SW,232,3.0,7.0,67,0.00,,---,0.00,VWS V14.00,2013-06-28 17:02:00,
2013-06-28 13:07:00,79.2,66.4,29.57,WSW,251,4.0,12.0,65,0.00,,---,0.00,VWS V14.00,2013-06-28 17:07:00,
2013-06-28 13:12:00,79.5,66.3,29.57,WSW,254,1.0,12.0,64,0.00,,---,0.00,VWS V14.00,2013-06-28 17:12:00,
2013-06-28 13:17:00,79.7,66.9,29.57,SW,231,0.0,12.0,65,0.00,,---,0.00,VWS V14.00,2013-06-28 17:17:00,
2013-06-28 13:22:00,79.9,65.7,29.57,West,274,1.0,12.0,62,0.00,,---,0.00,VWS V14.00,2013-06-28 17:22:00,
2013-06-28 13:28:00,79.4,66.2,29.57,WSW,244,4.0,12.0,64,0.00,,---,0.00,VWS V14.00,2013-06-28 17:28:00,
2013-06-28 13:33:00,79.4,65.7,29.56,West,263,0.0,3.0,63,0.00,,---,0.00,VWS V14.00,2013-06-28 17:33:00,
2013-06-28 13:38:00,79.4,64.8,29.56,West,267,3.0,7.0,61,0.00,,---,0.00,VWS V14.00,2013-06-28 17:38:00,
2013-06-28 13:43:00,79.6,65.4,29.56,West,259,1.0,7.0,62,0.00,,---,0.00,VWS V14.00,2013-06-28 17:43:00,
2013-06-28 13:48:00,79.9,66.7,29.55,WSW,257,0.0,7.0,64,0.00,,---,0.00,VWS V14.00,2013-06-28 17:48:00,
2013-06-28 13:53:00,80.0,67.6,29.55,WSW,253,3.0,10.0,66,0.00,,---,0.00,VWS V14.00,2013-06-28 17:53:00,
2013-06-28 13:58:00,80.1,66.4,29.55,WSW,256,3.0,10.0,63,0.00,,---,0.00,VWS V14.00,2013-06-28 17:58:00,
2013-06-28 14:03:00,80.0,66.3,29.55,SW,226,5.0,15.0,63,0.00,,---,0.00,VWS V14.00,2013-06-28 18:03:00,
2013-06-28 14:08:00,80.0,65.8,29.54,WNW,294,2.0,15.0,62,0.00,,---,0.00,VWS V14.00,2013-06-28 18:08:00,
2013-06-28 14:13:00,80.0,65.8,29.54,WSW,250,0.0,15.0,62,0.00,,---,0.00,VWS V14.00,2013-06-28 18:13:00,
2013-06-28 14:14:00,80.1,66.4,29.54,WSW,248,3.0,15.0,63,0.00,,---,0.00,VWS V14.00,2013-06-28 18:14:00,
2013-06-28 14:19:00,80.5,66.3,29.54,WSW,242,1.0,15.0,62,0.00,,---,0.00,VWS V14.00,2013-06-28 18:19:00,
2013-06-28 14:24:00,80.1,65.4,29.54,WSW,246,8.0,15.0,61,0.00,,---,0.00,VWS V14.00,2013-06-28 18:24:00,
2013-06-28 14:29:00,79.9,67.5,29.54,West,265,0.0,15.0,66,0.00,,---,0.00,VWS V14.00,2013-06-28 18:29:00,
2013-06-28 14:34:00,80.0,65.4,29.54,West,259,1.0,11.0,61,0.00,,---,0.00,VWS V14.00,2013-06-28 18:34:00,
2013-06-28 14:40:00,79.8,65.2,29.54,SW,229,0.0,11.0,61,0.00,,---,0.00,VWS V14.00,2013-06-28 18:40:00,
2013-06-28 14:45:00,79.6,65.9,29.53,SSW,199,0.0,11.0,63,0.00,,---,0.00,VWS V14.00,2013-06-28 18:45:00,
2013-06-28 14:50:00,79.8,66.6,29.53,West,265,3.0,11.0,64,0.00,,---,0.00,VWS V14.00,2013-06-28 18:50:00,
2013-06-28 14:55:00,80.0,66.3,29.53,WSW,258,0.0,11.0,63,0.00,,---,0.00,VWS V14.00,2013-06-28 18:55:00,
2013-06-28 15:00:00,79.8,64.2,29.52,WSW,254,2.0,2.0,59,0.00,,---,0.00,VWS V14.00,2013-06-28 19:00:00,
2013-06-28 15:05:00,79.2,64.6,29.53,SSE,168,0.0,8.0,61,0.00,,---,0.00,VWS V14.00,2013-06-28 19:05:00,
2013-06-28 15:10:00,78.8,64.7,29.53,WSW,248,0.0,8.0,62,0.00,,---,0.00,VWS V14.00,2013-06-28 19:10:00,
2013-06-28 15:15:00,78.4,65.2,29.53,West,271,6.0,14.0,64,0.00,,---,0.00,VWS V14.00,2013-06-28 19:15:00,
2013-06-28 15:20:00,77.0,63.5,29.54,West,262,1.0,14.0,63,0.00,,---,0.00,VWS V14.00,2013-06-28 19:20:00,
2013-06-28 15:25:00,75.5,65.0,29.54,WSW,251,1.0,14.0,70,0.01,,---,0.01,VWS V14.00,2013-06-28 19:25:00,
2013-06-28 15:30:00,73.8,64.2,29.55,WSW,246,5.0,5.0,72,0.01,,---,0.01,VWS V14.00,2013-06-28 19:30:00,
2013-06-28 15:35:00,72.6,63.5,29.54,WSW,258,3.0,5.0,73,0.01,,---,0.01,VWS V14.00,2013-06-28 19:35:00,
2013-06-28 15:40:00,71.9,62.8,29.54,West,279,2.0,8.0,73,0.01,,---,0.01,VWS V14.00,2013-06-28 19:40:00,
2013-06-28 15:45:00,71.3,63.0,29.54,WSW,254,3.0,8.0,75,0.01,,---,0.01,VWS V14.00,2013-06-28 19:45:00,
2013-06-28 15:50:00,70.6,63.4,29.54,WSW,238,0.0,8.0,78,0.01,,---,0.01,VWS V14.00,2013-06-28 19:50:00,
2013-06-28 15:55:00,70.4,64.7,29.53,WSW,258,1.0,8.0,82,0.01,,---,0.01,VWS V14.00,2013-06-28 19:55:00,
2013-06-28 16:00:00,71.0,65.2,29.53,WSW,249,3.0,6.0,82,0.01,,---,0.01,VWS V14.00,2013-06-28 20:00:00,
2013-06-28 16:06:00,72.3,66.8,29.54,SW,225,2.0,6.0,83,0.01,,---,0.01,VWS V14.00,2013-06-28 20:06:00,
2013-06-28 16:11:00,73.8,67.2,29.53,WSW,250,1.0,8.0,80,0.01,,---,0.01,VWS V14.00,2013-06-28 20:11:00,
2013-06-28 16:16:00,75.1,67.0,29.53,West,277,6.0,8.0,76,0.01,,---,0.01,VWS V14.00,2013-06-28 20:16:00,
2013-06-28 16:21:00,76.1,66.8,29.54,WSW,252,1.0,10.0,73,0.01,,---,0.01,VWS V14.00,2013-06-28 20:21:00,
2013-06-28 16:26:00,76.6,68.1,29.53,West,265,2.0,10.0,75,0.01,,---,0.01,VWS V14.00,2013-06-28 20:26:00,
2013-06-28 16:31:00,77.6,67.1,29.53,WSW,251,3.0,8.0,70,0.00,,---,0.01,VWS V14.00,2013-06-28 20:31:00,
2013-06-28 16:36:00,78.2,67.6,29.53,WSW,257,8.0,11.0,70,0.00,,---,0.01,VWS V14.00,2013-06-28 20:36:00,
2013-06-28 16:41:00,78.0,67.4,29.53,West,259,0.0,12.0,70,0.00,,---,0.01,VWS V14.00,2013-06-28 20:41:00,
2013-06-28 16:46:00,77.9,67.3,29.53,West,268,0.0,12.0,70,0.00,,---,0.01,VWS V14.00,2013-06-28 20:46:00,
2013-06-28 16:51:00,78.3,65.1,29.52,West,259,2.0,14.0,64,0.00,,---,0.01,VWS V14.00,2013-06-28 20:51:00,
2013-06-28 16:56:00,78.6,65.4,29.52,WSW,254,2.0,14.0,64,0.00,,---,0.01,VWS V14.00,2013-06-28 20:56:00,
2013-06-28 17:01:00,78.9,64.8,29.52,WSW,255,2.0,5.0,62,0.00,,---,0.01,VWS V14.00,2013-06-28 21:01:00,
2013-06-28 17:06:00,78.8,63.3,29.52,West,270,2.0,8.0,59,0.00,,---,0.01,VWS V14.00,2013-06-28 21:06:00,
2013-06-28 17:11:00,78.5,63.5,29.52,West,269,2.0,10.0,60,0.00,,---,0.01,VWS V14.00,2013-06-28 21:11:00,
2013-06-28 17:16:00,78.7,63.7,29.52,SW,232,3.0,10.0,60,0.00,,---,0.01,VWS V14.00,2013-06-28 21:16:00,
2013-06-28 17:21:00,79.0,64.9,29.52,WSW,251,0.0,10.0,62,0.00,,---,0.01,VWS V14.00,2013-06-28 21:21:00,
2013-06-28 17:26:00,79.4,64.8,29.52,WNW,296,1.0,10.0,61,0.00,,---,0.01,VWS V14.00,2013-06-28 21:26:00,
2013-06-28 17:31:00,79.4,64.3,29.52,WSW,253,1.0,3.0,60,0.00,,---,0.01,VWS V14.00,2013-06-28 21:31:00,
2013-06-28 17:37:00,79.5,62.5,29.52,West,271,5.0,8.0,56,0.00,,---,0.01,VWS V14.00,2013-06-28 21:37:00,
2013-06-28 17:42:00,79.3,63.3,29.52,WSW,257,4.0,11.0,58,0.00,,---,0.01,VWS V14.00,2013-06-28 21:42:00,
2013-06-28 17:47:00,79.3,63.3,29.53,WSW,246,8.0,12.0,58,0.00,,---,0.01,VWS V14.00,2013-06-28 21:47:00,
2013-06-28 17:52:00,79.2,62.7,29.53,West,267,0.0,12.0,57,0.00,,---,0.01,VWS V14.00,2013-06-28 21:52:00,
2013-06-28 17:57:00,79.1,60.5,29.53,West,259,2.0,12.0,53,0.00,,---,0.01,VWS V14.00,2013-06-28 21:57:00,
2013-06-28 18:02:00,79.2,61.1,29.53,West,261,1.0,6.0,54,0.00,,---,0.01,VWS V14.00,2013-06-28 22:02:00,
2013-06-28 18:07:00,79.2,61.1,29.53,West,261,0.0,6.0,54,0.00,,---,0.01,VWS V14.00,2013-06-28 22:07:00,
2013-06-28 18:12:00,79.2,62.2,29.53,SW,226,1.0,8.0,56,0.00,,---,0.01,VWS V14.00,2013-06-28 22:12:00,
2013-06-28 18:17:00,78.9,61.9,29.53,WSW,246,2.0,8.0,56,0.00,,---,0.01,VWS V14.00,2013-06-28 22:17:00,
2013-06-28 18:22:00,78.6,62.1,29.53,West,263,1.0,9.0,57,0.00,,---,0.01,VWS V14.00,2013-06-28 22:22:00,
2013-06-28 18:27:00,78.8,62.8,29.53,WSW,239,1.0,9.0,58,0.00,,---,0.01,VWS V14.00,2013-06-28 22:27:00,
2013-06-28 18:32:00,78.9,61.9,29.54,SSW,208,1.0,2.0,56,0.00,,---,0.01,VWS V14.00,2013-06-28 22:32:00,
2013-06-28 18:37:00,78.9,61.4,29.54,West,273,1.0,8.0,55,0.00,,---,0.01,VWS V14.00,2013-06-28 22:37:00,
2013-06-28 18:42:00,78.7,61.7,29.53,West,259,3.0,12.0,56,0.00,,---,0.01,VWS V14.00,2013-06-28 22:42:00,
2013-06-28 18:47:00,78.5,62.0,29.53,SW,232,0.0,12.0,57,0.00,,---,0.01,VWS V14.00,2013-06-28 22:47:00,
2013-06-28 18:52:00,78.5,63.0,29.54,WSW,254,2.0,12.0,59,0.00,,---,0.01,VWS V14.00,2013-06-28 22:52:00,
2013-06-28 18:57:00,78.4,62.4,29.53,West,269,0.0,12.0,58,0.00,,---,0.01,VWS V14.00,2013-06-28 22:57:00,
2013-06-28 19:02:00,78.2,62.2,29.54,SW,223,1.0,4.0,58,0.00,,---,0.01,VWS V14.00,2013-06-28 23:02:00,
2013-06-28 19:07:00,77.8,60.9,29.54,WSW,243,0.0,5.0,56,0.00,,---,0.01,VWS V14.00,2013-06-28 23:07:00,
2013-06-28 19:13:00,77.4,61.0,29.54,WSW,244,0.0,5.0,57,0.00,,---,0.01,VWS V14.00,2013-06-28 23:13:00,
2013-06-28 19:18:00,77.2,61.3,29.54,WSW,252,0.0,5.0,58,0.00,,---,0.01,VWS V14.00,2013-06-28 23:18:00,
2013-06-28 19:23:00,77.1,61.7,29.54,WSW,253,0.0,5.0,59,0.00,,---,0.01,VWS V14.00,2013-06-28 23:23:00,
2013-06-28 19:28:00,77.1,61.7,29.54,SW,236,1.0,5.0,59,0.00,,---,0.01,VWS V14.00,2013-06-28 23:28:00,
2013-06-28 19:33:00,77.1,61.2,29.54,WNW,298,5.0,7.0,58,0.00,,---,0.01,VWS V14.00,2013-06-28 23:33:00,
2013-06-28 19:38:00,77.0,61.6,29.55,South,171,0.0,7.0,59,0.00,,---,0.01,VWS V14.00,2013-06-28 23:38:00,
2013-06-28 19:43:00,76.9,62.0,29.55,South,186,0.0,7.0,60,0.00,,---,0.01,VWS V14.00,2013-06-28 23:43:00,
2013-06-28 19:48:00,76.9,62.4,29.55,South,188,0.0,7.0,61,0.00,,---,0.01,VWS V14.00,2013-06-28 23:48:00,
2013-06-28 19:53:00,76.7,61.8,29.54,SSE,149,0.0,7.0,60,0.00,,---,0.01,VWS V14.00,2013-06-28 23:53:00,
2013-06-28 19:58:00,76.5,61.6,29.54,SSE,155,0.0,7.0,60,0.00,,---,0.01,VWS V14.00,2013-06-28 23:58:00,
2013-06-28 20:03:00,76.3,61.9,29.54,South,180,0.0,2.0,61,0.00,,---,0.01,VWS V14.00,2013-06-29 00:03:00,
2013-06-28 20:08:00,76.2,61.8,29.55,SSW,196,0.0,3.0,61,0.00,,---,0.01,VWS V14.00,2013-06-29 00:08:00,
2013-06-28 20:13:00,75.9,61.5,29.55,SSW,195,0.0,3.0,61,0.00,,---,0.01,VWS V14.00,2013-06-29 00:13:00,
2013-06-28 20:18:00,75.8,61.4,29.55,SW,223,0.0,3.0,61,0.00,,---,0.01,VWS V14.00,2013-06-29 00:18:00,
2013-06-28 20:23:00,75.6,61.7,29.54,SW,222,0.0,3.0,62,0.00,,---,0.01,VWS V14.00,2013-06-29 00:23:00,
2013-06-28 20:29:00,75.4,61.9,29.54,SW,223,0.0,3.0,63,0.00,,---,0.01,VWS V14.00,2013-06-29 00:29:00,
2013-06-28 20:34:00,75.3,61.4,29.54,SW,223,0.0,1.0,62,0.00,,---,0.01,VWS V14.00,2013-06-29 00:34:00,
2013-06-28 20:39:00,75.1,61.2,29.55,SW,222,0.0,1.0,62,0.00,,---,0.01,VWS V14.00,2013-06-29 00:39:00,
2013-06-28 20:44:00,75.0,61.6,29.55,SW,223,0.0,1.0,63,0.00,,---,0.01,VWS V14.00,2013-06-29 00:44:00,
2013-06-28 20:49:00,74.9,61.5,29.55,SW,222,0.0,1.0,63,0.00,,---,0.01,VWS V14.00,2013-06-29 00:49:00,
2013-06-28 20:54:00,74.7,61.3,29.54,SW,223,0.0,1.0,63,0.00,,---,0.01,VWS V14.00,2013-06-29 00:54:00,
2013-06-28 20:59:00,74.6,61.2,29.54,SW,223,0.0,1.0,63,0.00,,---,0.01,VWS V14.00,2013-06-29 00:59:00,
2013-06-28 21:04:00,74.4,61.4,29.55,SW,222,0.0,0.0,64,0.00,,---,0.01,VWS V14.00,2013-06-29 01:04:00,
2013-06-28 21:09:00,74.2,61.7,29.55,SW,222,0.0,1.0,65,0.00,,---,0.01,VWS V14.00,2013-06-29 01:09:00,
2013-06-28 21:14:00,73.9,61.4,29.54,SW,222,1.0,1.0,65,0.00,,---,0.01,VWS V14.00,2013-06-29 01:14:00,
2013-06-28 21:19:00,73.8,61.7,29.54,SW,222,0.0,1.0,66,0.00,,---,0.01,VWS V14.00,2013-06-29 01:19:00,
2013-06-28 21:24:00,73.5,61.9,29.54,SW,221,0.0,1.0,67,0.00,,---,0.01,VWS V14.00,2013-06-29 01:24:00,
2013-06-28 21:29:00,73.3,61.7,29.54,SW,223,0.0,1.0,67,0.00,,---,0.01,VWS V14.00,2013-06-29 01:29:00,
2013-06-28 21:34:00,73.1,61.9,29.54,SW,222,0.0,0.0,68,0.00,,---,0.01,VWS V14.00,2013-06-29 01:34:00,
2013-06-28 21:39:00,72.9,61.7,29.54,SW,223,0.0,0.0,68,0.00,,---,0.01,VWS V14.00,2013-06-29 01:39:00,
2013-06-28 21:44:00,72.8,61.6,29.54,SW,222,0.0,0.0,68,0.00,,---,0.01,VWS V14.00,2013-06-29 01:44:00,
2013-06-28 21:49:00,72.6,61.9,29.54,SW,223,0.0,0.0,69,0.00,,---,0.01,VWS V14.00,2013-06-29 01:49:00,
2013-06-28 21:54:00,72.4,61.7,29.54,SW,223,0.0,0.0,69,0.00,,---,0.01,VWS V14.00,2013-06-29 01:54:00,
2013-06-28 21:59:00,72.1,61.8,29.55,SW,222,0.0,0.0,70,0.00,,---,0.01,VWS V14.00,2013-06-29 01:59:00,
2013-06-28 22:05:00,71.9,61.6,29.55,SW,223,0.0,0.0,70,0.00,,---,0.01,VWS V14.00,2013-06-29 02:05:00,
2013-06-28 22:10:00,71.7,61.8,29.55,SW,222,0.0,0.0,71,0.00,,---,0.01,VWS V14.00,2013-06-29 02:10:00,
2013-06-28 22:15:00,71.5,61.6,29.55,SW,223,0.0,0.0,71,0.00,,---,0.01,VWS V14.00,2013-06-29 02:15:00,
2013-06-28 22:20:00,71.3,61.8,29.55,SW,222,0.0,0.0,72,0.00,,---,0.01,VWS V14.00,2013-06-29 02:20:00,
2013-06-28 22:25:00,71.2,61.7,29.55,SW,222,0.0,0.0,72,0.00,,---,0.01,VWS V14.00,2013-06-29 02:25:00,
2013-06-28 22:30:00,71.1,61.6,29.55,SW,222,0.0,0.0,72,0.00,,---,0.01,VWS V14.00,2013-06-29 02:30:00,
2013-06-28 22:35:00,71.0,61.9,29.55,SW,223,0.0,0.0,73,0.00,,---,0.01,VWS V14.00,2013-06-29 02:35:00,
2013-06-28 22:40:00,70.8,61.7,29.55,SW,222,0.0,0.0,73,0.00,,---,0.01,VWS V14.00,2013-06-29 02:40:00,
2013-06-28 22:45:00,70.6,61.5,29.55,SW,222,0.0,0.0,73,0.00,,---,0.01,VWS V14.00,2013-06-29 02:45:00,
2013-06-28 22:50:00,70.5,61.4,29.55,SW,222,0.0,0.0,73,0.00,,---,0.01,VWS V14.00,2013-06-29 02:50:00,
2013-06-28 22:55:00,70.3,61.6,29.55,SW,223,0.0,0.0,74,0.00,,---,0.01,VWS V14.00,2013-06-29 02:55:00,
2013-06-28 23:00:00,70.0,61.3,29.55,SW,223,0.0,0.0,74,0.00,,---,0.01,VWS V14.00,2013-06-29 03:00:00,
2013-06-28 23:05:00,69.9,61.6,29.55,SW,222,0.0,0.0,75,0.00,,---,0.01,VWS V14.00,2013-06-29 03:05:00,
2013-06-28 23:10:00,69.6,61.7,29.55,SW,223,0.0,0.0,76,0.00,,---,0.01,VWS V14.00,2013-06-29 03:10:00,
2013-06-28 23:15:00,69.4,61.9,29.55,SW,222,0.0,0.0,77,0.00,,---,0.01,VWS V14.00,2013-06-29 03:15:00,
2013-06-28 23:20:00,69.2,61.7,29.55,SW,222,0.0,0.0,77,0.00,,---,0.01,VWS V14.00,2013-06-29 03:20:00,
2013-06-28 23:25:00,68.9,61.8,29.55,SW,222,0.0,0.0,78,0.00,,---,0.01,VWS V14.00,2013-06-29 03:25:00,
2013-06-28 23:30:00,68.6,61.5,29.54,SW,222,0.0,0.0,78,0.00,,---,0.01,VWS V14.00,2013-06-29 03:30:00,
2013-06-28 23:35:00,68.4,61.3,29.54,SW,223,0.0,0.0,78,0.00,,---,0.01,VWS V14.00,2013-06-29 03:35:00,
2013-06-28 23:41:00,68.3,61.2,29.54,SW,223,0.0,1.0,78,0.00,,---,0.01,VWS V14.00,2013-06-29 03:41:00,
2013-06-28 23:46:00,68.2,61.8,29.55,SW,222,0.0,1.0,80,0.00,,---,0.01,VWS V14.00,2013-06-29 03:46:00,
2013-06-28 23:51:00,68.0,61.6,29.54,SW,223,0.0,1.0,80,0.00,,---,0.01,VWS V14.00,2013-06-29 03:51:00,
2013-06-28 23:56:00,67.9,61.5,29.55,SW,222,0.0,1.0,80,0.00,,---,0.01,VWS V14.00,2013-06-29 03:56:00,